Regional Weather Roundup
Issued by NWS

Home | Current Version | Previous Version | Text Only | Print | Product List | Glossary Off
Versions: 1 2 3 4 5 6 7 8 9 10 11 12 13 14 15 16 17 18 19 20 21 22 23 24 25 26 27 28 29 30 31 32 33 34 35 36 37 38 39 40 41 42 43 44 45 46 47 48 49 50

000
ASUS45 KSLC 250610
RWRUT

UTAH REGIONAL WEATHER ROUNDUP
NATIONAL WEATHER SERVICE SALT LAKE CITY UT
1200 AM MDT WED APR 25 2018

UTZ001>011-023>025-250700-

NORTHERN UTAH

CITY           SKY/WX    TMP DP  RH WIND       PRES   REMARKS
BRIGHAM CITY   CLEAR     55  19  24 E10       30.28S
HILL AFB       NOT AVBL
LOGAN          CLEAR     53  24  32 SE8       30.29S
OGDEN          CLEAR     52  20  28 CALM      30.26S
SALT LAKE CITY CLEAR     52  39  61 CALM      30.25F
TOOELE VALLEY  CLEAR     37  32  81 S9        30.27F WCI  31
WENDOVER       NOT AVBL
HEBER CITY       N/A     41  21  45 CALM      30.32R
WEST JORDAN    CLEAR     48  28  45 CALM      30.28S

$$

UTZ011>015-024>027-250700-

CENTRAL/NORTHEAST UTAH

CITY           SKY/WX    TMP DP  RH WIND       PRES   REMARKS
PROVO AIRPORT  CLEAR     53  39  59 NW7       30.28S
MOAB/CANYONLAN CLEAR     53  19  26 NE21G28   30.26R
DELTA          CLEAR     48  27  43 NE6       30.25S
PRICE          CLEAR     48  19  31 N12       30.31R
ROOSEVELT      CLEAR     45  21  39 S5        30.41R
VERNAL         CLEAR     43  20  39 E5        30.39R

$$

UTZ013>016-019>022-027-250700-

SOUTHERN UTAH

CITY           SKY/WX    TMP DP  RH WIND       PRES   REMARKS
BRYCE CANYON   CLEAR     42  20  41 NE13      30.31R
CEDAR CITY     CLEAR     46  25  43 N6        30.24R
MILFORD        CLEAR     43  23  45 MISG      30.24R
ST GEORGE      CLEAR     70  24  17 NE12      30.06R
HANKSVILLE     CLEAR     55  18  22 NE9       30.27R
BLANDING         N/A     56  13  18 CALM      30.26R

$$

REGIONAL REPORTS     COLORADO/ARIZONA

CITY           SKY/WX    TMP DP  RH WIND       PRES   REMARKS
CRAIG, CO      CLEAR     28  22  78 SW10      30.41R WCI  19
GRAND JUNCTION CLEAR     48  18  30 N9        30.33R
RIFLE, CO      CLEAR     43  22  43 NW9       30.37R
MONTROSE, CO   CLEAR     44  16  32 NW6       30.34R
CORTEZ, CO     CLEAR     48  19  31 CALM      30.20R
PAGE, AZ       PTCLDY    69  20  15 N10       30.11R
GRAND CANYON   PTCLDY    40  16  37 CALM      30.23R
KINGMAN, AZ    CLEAR     64  18  17 E8        30.05R
FLAGSTAFF, AZ  CLEAR     45  18  34 CALM      30.25R

$$

REGIONAL REPORTS    NEVADA/IDAHO/WYOMING

CITY           SKY/WX    TMP DP  RH WIND       PRES   REMARKS
LAS VEGAS, NV  PTCLDY    78  28  16 SW6       29.95R
ELY, NY        CLEAR     43  13  29 NE12      30.29R
ELKO, NV       CLEAR     49  21  33 NE10      30.21S
POCATELLO, ID  CLEAR     42  32  67 W8        30.30S
BURLEY, ID     CLEAR     43  34  70 E3        30.26S
FORT BRIDGER,    N/A     33  20  58 S10       30.42S WCI  25
EVANSTON, WY   CLEAR     37  20  50 E8        30.37F WCI  31
ROCK SPRINGS,  CLEAR     31  17  56 SE9       30.41F WCI  23
KEMMERER, WY   CLEAR     34  19  55 E8        30.41R WCI  27

$$



USA.gov is the U.S. government's official web portal to all federal, state and local government web resources and services.